EW6758 Weather Reports


time (UTC)temp
F
wind
direction
speed
knots
gust
knots
rain 1hr
in
rain 24hr
in
rain mn
in
humidity
%
barometer
mb
20260510042703 67 253 0.0 0.0 0.00 1.31 1.22 99 1012.5
20260510040603 67 243 0.0 0.0 0.00 1.31 1.22 99 1012.9
20260510034702 66 227 0.0 0.0 0.00 1.31 1.22 99 1012.9
20260510032733 66 284 0.0 0.0 0.00 1.31 1.22 99 1012.9
20260510030633 66 282 0.0 0.0 0.00 1.31 1.22 99 1012.5
20260510024733 66 255 0.0 0.0 0.00 1.31 1.22 99 1012.2
20260510022002 66 274 0.0 0.0 0.00 1.31 1.22 99 1012.2
20260510020003 67 264 0.0 0.0 0.00 1.31 1.22 99 1011.9
20260510014003 67 286 0.0 0.0 0.00 1.31 1.22 99 1011.9
20260510012003 68 302 0.0 0.0 0.00 1.31 1.22 99 1011.5
20260510010002 68 293 0.0 0.0 0.00 1.31 1.22 99 1011.2
20260510004003 69 342 0.0 0.0 0.00 1.31 1.22 99 1010.8
20260510002002 69 232 0.0 0.0 0.00 1.31 1.22 99 1010.8
20260510000002 69 270 0.0 0.0 0.00 1.31 1.22 99 1010.8
20260509234003 69 328 0.0 0.0 0.00 1.31 1.22 99 1010.8
20260509232003 70 277 0.0 0.0 0.00 1.31 1.22 99 1010.8
20260509230032 70 233 0.0 0.0 0.00 1.31 1.22 99 1010.8
20260509224002 70 292 0.0 0.0 0.00 1.31 1.22 99 1010.8
20260509222003 70 335 0.0 0.0 0.00 1.31 1.22 99 1010.5
20260509220003 69 269 0.0 0.0 0.00 1.31 1.22 99 1010.5
20260509214033 69 316 0.0 0.0 0.00 1.31 1.22 99 1010.2
20260509212002 69 268 0.0 0.0 0.00 1.31 1.22 99 1010.8
20260509210002 69 272 0.0 0.0 0.00 1.31 1.22 99 1010.5
20260509204003 68 286 0.9 2.6 0.00 1.31 1.22 99 1010.8
20260509202003 69 318 0.0 0.0 0.07 1.30 1.22 99 1010.8
20260509200033 69 336 0.9 2.6 0.00 1.30 1.21 99 1010.8
20260509194003 69 318 0.0 0.0 0.00 1.30 1.21 99 1011.2
20260509192003 70 54 0.0 0.0 0.00 1.30 1.21 99 1011.2
20260509190003 70 311 0.0 0.0 0.00 1.30 1.21 99 1010.8
20260509184033 70 6 0.0 0.0 0.00 1.30 1.21 99 1010.8
20260509182003 70 334 0.0 0.0 0.00 1.30 1.21 99 1010.8
20260509180033 70 324 0.0 0.0 0.00 1.30 1.21 99 1011.2
20260509173402 71 317 0.0 0.0 0.00 1.30 1.21 99 1011.2
20260509171303 70 276 0.0 0.0 0.00 1.30 1.21 99 1011.5
20260509165306 70 213 0.0 0.0 0.00 1.30 1.21 99 1011.9
20260509163433 70 189 0.0 0.0 0.00 1.30 1.21 99 1011.9
20260509161303 69 302 0.0 0.0 0.00 1.30 1.21 99 1011.9
20260509155305 69 311 0.0 0.0 0.00 1.30 1.21 99 1011.5
20260509153403 68 183 0.0 0.0 0.00 1.30 1.21 99 1011.5
20260509151302 67 185 0.0 0.0 0.00 1.30 1.21 99 1011.2
20260509145306 67 309 0.0 0.0 0.00 1.30 1.21 99 1011.2
20260509143403 66 272 0.0 0.0 0.00 1.30 1.21 99 1011.5
20260509141303 66 256 0.0 0.0 0.00 1.30 1.21 99 1011.5
20260509135305 65 304 0.0 0.0 0.21 1.26 1.21 99 1011.5
20260509132703 65 249 0.0 0.0 0.00 1.26 1.17 99 1011.5
20260509130602 64 240 0.0 0.0 0.00 1.26 1.17 99 1011.5
20260509124703 64 235 0.0 0.0 0.00 1.26 1.17 99 1011.5
20260509122702 64 213 0.0 0.0 0.35 1.24 1.17 99 1011.2
20260509120602 64 294 0.0 0.0 0.14 1.17 1.10 99 1011.2
20260509114702 64 294 0.0 0.0 0.00 1.17 1.08 99 1011.2
20260509112703 63 306 0.0 0.0 0.00 1.15 1.06 99 1010.8
20260509110602 63 238 0.0 0.0 0.00 1.15 1.06 99 1010.2
20260509104703 63 270 0.0 0.0 0.00 1.15 1.06 99 1010.2
20260509102733 63 271 0.0 0.0 0.00 1.15 1.06 99 1010.2
20260509100602 63 244 0.0 0.0 0.00 1.15 1.06 99 1010.5
20260509094703 63 206 0.0 0.0 0.14 1.08 1.02 99 1010.8
20260509092703 63 221 0.0 0.0 0.07 1.08 0.99 99 1010.5
20260509090603 63 248 0.0 0.0 0.28 0.62 0.97 99 1011.2
20260509083403 65 311 5.2 17.4 1.56 0.09 0.26 99 1012.9
20260509081333 67 241 1.7 2.6 0.00 0.09 0.00 99 1010.2
20260509075333 67 267 0.0 0.0 0.00 0.09 0.00 98 1009.8
20260509073403 67 282 0.0 0.0 0.00 0.09 0.00 98 1009.8
20260509071303 67 254 0.0 0.0 0.00 0.09 0.00 98 1010.2
20260509065306 67 245 0.0 0.0 0.00 0.09 0.00 98 1010.5
20260509062703 67 240 0.0 0.0 0.00 0.09 0.00 98 1010.8
20260509060603 67 272 0.0 0.0 0.00 0.09 0.00 98 1011.2
20260509054704 67 264 0.0 0.0 0.00 0.09 0.00 97 1011.2
20260509052703 67 274 0.0 0.0 0.00 0.09 0.00 97 1011.5
20260509050602 67 306 0.0 0.0 0.00 0.09 0.00 97 1011.5
20260509044702 67 325 0.0 0.0 0.00 0.09 0.09 97 1011.5